STARLINK-32492, 62050

Orbit data source: Space-Track

STARLINK-32492, 62050 is a payload satellite owned by SpaceX/Seattle (US) in LEO that was launched on Thu, 21 Nov 2024 UTC via an FALCON 9 launch vehicle from the Air Force Eastern Test Range (AFETR). Payload-class satellites include a variety of spacecraft equipped with specific instruments for various scientific and technological missions. These include communications satellites like Starlink; space stations such as the ISS; scientific satellites like the Hubble; Earth observation satellites from companies like Planet Labs, Umbra, and HawkEye 360; GPS; miniature CubeSats for education and research; and military/defense satellites.

Loading next visibility...
Identifier
62050, 2024-216U
Orbit
LEO
Country
Flag of USUS
Related business
Manufacturer
SpaceX/Seattle
Mission
Operational Commercial Communications
Bus & Motor
STARLINK V2M, Unknown motor
Mass
730 kg wet, ~700 kg dry
Launch date (UTC)
2024-11-21 (11 months ago)
Launch vehicle
FALCON 9
Launch site
Air Force Eastern Test Range (AFETR)
Object type
Payload
Rocket body
Debris
Shape & HBR
Box + 2 Pan, 17.7 m
Radar Cross Section
33.884 m², Large (>1 m²)

Expand to show TLE details & history
Last TLE update: 23 hours ago

TLE from 23 hours ago
0 STARLINK-32492
1 62050U 24216U   25296.43315604  .00048846  00000-0  17714-2 0  9990
2 62050  43.0011 318.4279 0001578 271.8392  88.2279 15.27606667 52808
Epoch: 2025-10-23T10:23Z
TLE epoch observation values (Epoch: 2025-10-23T10:23:44.681Z)
Latitude
-0.00003°
Longitude
130.39922°
Altitude
482.711 km
Speed
7.626 km/s
True Right ascension
21h 13m 42s
True Declination
0° 00' 00"
Sunlit
Object was in daylight at epoch
Visualization orbit readout
Latitude
Unknown
Longitude
Unknown
Altitude
Unknown
Speed
Unknown
Apparent Right ascension
Unknown
Apparent Declination
Unknown
Sunlit
N/A
Visualization observer readout
Local Sidereal Time
04:22:25
Azimuth
Unknown
Elevation
Unknown
Doppler factor
Unknown
Orbital elements
Apogee altitude
485.997 km
Perigee altitude
483.831 km
Semi-major axis
6,863.051 km
Eccentricity
0.00016
Inclination
43.0011°
RAAN
318.4279°
Arg. of periapsis
271.8392°
True anomaly
88.24597°
Mean anomaly
88.2279°
Eccentric anomaly
88.23694°
Mean motion
3.8174 °/min
Orbital period
94.31 mins
BSTAR
0.0017714
Loading maneuver chart data...
Computing Atmospheric mass density...
Loading historical data...
Loading historical data...
Loading historical data...
Loading historical data...
Loading historical data...
Loading historical data...
Loading historical data...

Documentation

Showing up to 5 results
|